Harvard, Illinois, United States (60033)
Lat: 42.42N, Lon: 88.61W
Wx Zone: ILZ005
Local Info
Past Weather Observations for Today

NOTE: This archive is for the closest National Weather Service station to Harvard. Information may differ from the station used for current weather conditions.

Click here for Long-term Archive

Time Weather Temperature Dewpoint Humidity Pressure Winds Precip Visibility
08:55
Overcast
41°F / 5°C 36°F / 2°C 81% 29.92 in
(1013 mb)
NW 9.2 mph
(NW 15 kph)
- 10SM
08:35
Overcast
41°F / 5°C 36°F / 2°C 81% 29.92 in
(1013 mb)
N 4.6 mph
(N 7 kph)
- 10SM
08:15
Overcast
41°F / 5°C 36°F / 2°C 81% 29.92 in
(1013 mb)
NNW 6.9 mph
(NNW 11 kph)
- 10SM
07:55
Overcast
39°F / 4°C 36°F / 2°C 87% 29.92 in
(1013 mb)
NNW 8.1 mph
(NNW 13 kph)
- 10SM
07:35
Overcast
39°F / 4°C 36°F / 2°C 87% 29.89 in
(1012 mb)
NNW 8.1 mph
(NNW 13 kph)
- 10SM
07:15
Overcast
39°F / 4°C 37°F / 3°C 93% 29.89 in
(1012 mb)
NNW 5.8 mph
(NNW 9 kph)
- 10SM
06:55
Overcast
39°F / 4°C 37°F / 3°C 93% 29.86 in
(1011 mb)
Calm - 10SM
06:35
Overcast
39°F / 4°C 37°F / 3°C 93% 29.86 in
(1011 mb)
N 3.5 mph
(N 6 kph)
- 10SM
06:15
Overcast
39°F / 4°C 37°F / 3°C 93% 29.86 in
(1011 mb)
N 4.6 mph
(N 7 kph)
- 10SM
05:55
Overcast
37°F / 3°C 37°F / 3°C 100% 29.83 in
(1010 mb)
NNW 4.6 mph
(NNW 7 kph)
- 10SM
05:35
Overcast
39°F / 4°C 37°F / 3°C 93% 29.83 in
(1010 mb)
N 5.8 mph
(N 9 kph)
- 10SM
05:15
Overcast
39°F / 4°C 37°F / 3°C 93% 29.83 in
(1010 mb)
NNE 8.1 mph
(NNE 13 kph)
- 10SM
04:55
Overcast
39°F / 4°C 37°F / 3°C 93% 29.8 in
(1009 mb)
N 6.9 mph
(N 11 kph)
- 10SM
04:35
Overcast
39°F / 4°C 37°F / 3°C 93% 29.8 in
(1009 mb)
NNE 5.8 mph
(NNE 9 kph)
- 10SM
04:15
Overcast
37°F / 3°C 37°F / 3°C 100% 29.8 in
(1009 mb)
N 9.2 mph
(N 15 kph)
- 10SM
03:55
Overcast
39°F / 4°C 37°F / 3°C 93% 29.77 in
(1008 mb)
N 10.4 mph
(N 17 kph)
- 10SM
03:35
Overcast
37°F / 3°C 37°F / 3°C 100% 29.77 in
(1008 mb)
N 9.2 mph
(N 15 kph)
- 10SM
03:15
Overcast
37°F / 3°C 36°F / 2°C 93% 29.77 in
(1008 mb)
N 9.2 mph
(N 15 kph)
- 10SM
02:55
Partly Cloudy
36°F / 2°C 36°F / 2°C 100% 29.74 in
(1007 mb)
N 9.2 mph
(N 15 kph)
- 10SM
02:35
Clear
36°F / 2°C 34°F / 1°C 93% 29.74 in
(1007 mb)
N 9.2 mph
(N 15 kph)
- 10SM
02:15
Clear
36°F / 2°C 34°F / 1°C 93% 29.74 in
(1007 mb)
N 5.8 mph
(N 9 kph)
- 10SM
01:55
Clear
34°F / 1°C 34°F / 1°C 100% 29.74 in
(1007 mb)
N 5.8 mph
(N 9 kph)
- 10SM
01:35
Clear
36°F / 2°C 34°F / 1°C 93% 29.74 in
(1007 mb)
Calm - 10SM
01:15
Clear
37°F / 3°C 36°F / 2°C 93% 29.74 in
(1007 mb)
Calm - 10SM
00:55
Partly Cloudy
39°F / 4°C 36°F / 2°C 87% 29.74 in
(1007 mb)
NE 3.5 mph
(NE 6 kph)
- 10SM
00:35
Mostly Cloudy
41°F / 5°C 36°F / 2°C 81% 29.74 in
(1007 mb)
NE 5.8 mph
(NE 9 kph)
- 10SM
00:15
Partly Cloudy
41°F / 5°C 36°F / 2°C 81% 29.74 in
(1007 mb)
NE 5.8 mph
(NE 9 kph)
- 10SM
Time Weather Temperature Dewpoint Humidity Pressure Winds Precip Visibility


Weather for websites

WeatherForYou.com, LLC is not responsible for any damages or problems caused by this service. Current weather conditions are obtained from the closest station including government and personal stations which may have varying degrees of accuracy. Weather forecasts are derived from the NOAA NDFD. Like all things, this site belongs to Jesus Christ... He just trusts me to maintain it. If you have any questions or comments email webmaster@weatherforyou.com

Copyright © 2015, WeatherForYou.com LLC. All rights reserved.